QPF
0.00 0.00 0.00 0.00 0.00 0.00 0.00 0.00 0.00 0.00 0.00 0.00 0.02 0.01 0.00 0.00 0.00 0.00 0.00 0.00 0.00 0.00 0.00 0.01 0.01 0.01 0.00 0.00 0.01 0.00 0.02 0.00 0.12 0.00 0.00 0.01 0.01 0.00 0.00 0.00 0.00 0.00
0.00 0.00 0.00 0.00 0.00 0.00 0.00 0.00 0.00 0.00 0.00 0.00 0.00 0.08 0.00 0.00 0.00 0.00 0.00 0.00 0.00 0.00 0.01 0.00 0.00 0.01 0.01 0.01 0.00 0.00 0.00 0.00 0.00 0.00 0.01 0.00 0.00 0.00 0.00 0.00 0.00 0.00
0.00 0.00 0.00 0.00 0.00 0.01 0.00 0.00 0.00 0.00 0.01 0.01 0.00 0.00 0.00 0.00 0.01 0.00 0.00 0.00 0.00 0.00 0.00 0.00 0.00 0.01 0.00 0.00 0.01 0.00 0.00 0.00 0.00 0.06 0.03 0.03 0.02 0.00 0.00 0.00 0.00 0.00
0.00 0.00 0.00 0.00 0.00 0.02 0.01 0.00 0.00 0.00 0.00 0.00 0.00 0.00 0.00 0.02 0.01 0.00 0.00 0.00 0.00 0.00 0.00 0.00 0.00 0.03 0.00 0.01 0.01 0.00 0.01 0.04 0.00 0.04 0.04 0.03 0.02 0.02 0.00 0.00 0.00 0.00
0.00 0.00 0.00 0.00 0.00 0.00 0.00 0.00 0.00 0.02 0.04 0.00 0.00 0.00 0.00 0.00 0.00 0.00 0.00 0.00 0.00 0.00 0.00 0.00 0.00 0.00 0.00 0.00 0.00 0.00 0.01 0.01 0.01 0.02 0.02 0.01 0.00 0.00 0.00 0.00 0.00 0.00
0.00 0.00 0.00 0.00 0.00 0.00 0.00 0.00 0.00 0.01 0.01 0.03 0.02 0.01 0.00 0.00 0.00 0.00 0.00 0.00 0.00 0.00 0.00 0.00 0.00 0.00 0.00 0.00 0.00 0.01 0.00 0.00 0.01 0.01 0.00 0.00 0.00 0.02 0.00 0.00 0.00 0.00
0.00 0.00 0.00 0.00 0.00 0.00 0.00 0.00 0.00 0.00 0.00 0.03 0.01 0.01 0.00 0.00 0.00 0.00 0.00 0.01 0.00 0.00 0.00 0.02 0.00 0.02 0.00 0.00 0.00 0.00 0.00 0.01 0.04 0.05 0.02 0.00 0.00 0.00 0.00 0.00 0.00 0.00
0.00 0.00 0.00 0.00 0.00 0.00 0.00 0.00 0.00 0.00 0.00 0.01 0.02 0.01 0.04 0.06 0.04 0.00 0.00 0.00 0.00 0.00 0.01 0.00 0.00 0.00 0.00 0.00 0.00 0.00 0.00 0.01 0.00 0.01 0.00 0.00 0.00 0.00 0.00 0.00 0.00 0.00
0.00 0.00 0.00 0.00 0.00 0.00 0.00 0.00 0.00 0.00 0.00 0.01 0.01 0.02 0.01 0.01 0.01 0.05 0.01 0.00 0.01 0.00 0.00 0.00 0.00 0.00 0.00 0.00 0.00 0.00 0.00 0.00 0.01 0.00 0.00 0.00 0.00 0.00 0.00 0.00 0.00 0.00
0.00 0.00 0.00 0.00 0.00 0.00 0.00 0.00 0.00 0.00 0.01 0.00 0.00 0.01 0.02 0.01 0.03 0.10 0.06 0.00 0.00 0.02 0.00 0.00 0.00 0.00 0.01 0.00 0.00 0.00 0.00 0.00 0.00 0.00 0.00 0.00 0.00 0.00 0.00 0.00 0.00 0.00
0.00 0.00 0.00 0.00 0.00 0.00 0.00 0.00 0.00 0.00 0.00 0.04 0.00 0.00 0.00 0.02 0.00 0.02 0.01 0.00 0.00 0.00 0.00 0.00 0.00 0.00 0.00 0.01 0.00 0.00 0.01 0.00 0.00 0.00 0.00 0.00 0.00 0.00 0.00 0.00 0.00 0.00
0.00 0.00 0.00 0.00 0.00 0.00 0.00 0.00 0.00 0.00 0.01 0.02 0.01 0.04 0.00 0.01 0.01 0.01 0.00 0.00 0.00 0.01 0.00 0.00 0.00 0.00 0.00 0.00 0.00 0.01 0.00 0.01 0.01 0.02 0.01 0.00 0.00 0.00 0.00 0.00 0.00 0.00
0.00 0.00 0.00 0.00 0.00 0.00 0.00 0.00 0.00 0.00 0.00 0.00 0.01 0.01 0.00 0.00 0.01 0.01 0.00 0.00 0.01 0.01 0.01 0.02 0.00 0.00 0.00 0.00 0.00 0.00 0.00 0.00 0.00 0.00 0.01 0.01 0.00 0.00 0.00 0.00 0.00 0.00
0.00 0.00 0.00 0.00 0.00 0.00 0.00 0.00 0.00 0.00 0.00 0.00 0.00 0.00 0.00 0.00 0.00 0.00 0.00 0.02 0.02 0.01 0.01 0.01 0.01 0.00 0.00 0.00 0.00 0.01 0.00 0.00 0.00 0.00 0.00 0.00 0.00 0.02 0.00 0.00 0.01 0.00
0.00 0.00 0.00 0.00 0.00 0.00 0.00 0.00 0.00 0.00 0.00 0.00 0.00 0.00 0.00 0.00 0.00 0.00 0.00 0.00 0.01 0.00 0.01 0.00 0.01 0.02 0.00 0.02 0.00 0.00 0.01 0.01 0.00 0.00 0.00 0.00 0.00 0.00 0.01 0.00 0.00 0.00
0.01 0.02 0.01 0.00 0.00 0.00 0.00 0.00 0.00 0.00 0.00 0.00 0.00 0.00 0.00 0.00 0.00 0.00 0.00 0.00 0.01 0.03 0.02 0.01 0.00 0.01 0.01 0.00 0.00 0.05 0.04 0.01 0.01 0.00 0.00 0.00 0.02 0.01 0.00 0.00 0.00 0.00
0.00 0.00 0.02 0.02 0.09 0.01 0.01 0.00 0.01 0.00 0.00 0.00 0.00 0.00 0.00 0.00 0.00 0.00 0.01 0.00 0.00 0.02 0.03 0.00 0.01 0.00 0.00 0.00 0.00 0.00 0.00 0.00 0.00 0.00 0.03 0.01 0.01 0.00 0.00 0.00 0.00 0.00
0.03 0.02 0.02 0.02 0.04 0.04 0.02 0.02 0.01 0.01 0.01 0.00 0.01 0.00 0.00 0.00 0.00 0.00 0.00 0.01 0.02 0.02 0.02 0.02 0.01 0.00 0.00 0.00 0.00 0.00 0.00 0.00 0.00 0.00 0.00 0.00 0.00 0.00 0.00 0.00 0.00 0.00
0.08 0.03 0.03 0.02 0.01 0.01 0.01 0.01 0.01 0.01 0.00 0.03 0.01 0.04 0.02 0.00 0.00 0.00 0.00 0.00 0.00 0.00 0.00 0.00 0.00 0.00 0.00 0.00 0.00 0.00 0.00 0.00 0.00 0.00 0.00 0.00 0.00 0.00 0.00 0.00 0.00 0.00
0.46 0.58 0.51 0.33 0.26 0.18 0.05 0.05 0.02 0.01 0.02 0.07 0.02 0.13 0.12 0.08 0.04 0.02 0.00 0.00 0.00 0.00 0.00 0.00 0.00 0.00 0.00 0.00 0.00 0.00 0.00 0.00 0.00 0.00 0.00 0.00 0.00 0.00 0.00 0.00 0.00 0.00
0.31 0.48 0.54 0.30 0.41 0.30 0.33 0.36 0.36 0.13 0.05 0.14 0.49 0.48 0.14 0.11 0.14 0.06 0.02 0.00 0.00 0.00 0.00 0.00 0.00 0.00 0.00 0.00 0.00 0.00 0.00 0.00 0.00 0.00 0.00 0.00 0.00 0.00 0.00 0.00 0.00 0.00
0.34 0.07 0.11 0.21 0.48 0.53 0.69 0.45 0.43 0.10 0.09 0.12 0.42 0.42 0.22 0.11 0.13 0.35 0.17 0.03 0.02 0.01 0.00 0.00 0.00 0.00 0.00 0.00 0.00 0.00 0.00 0.00 0.00 0.00 0.00 0.00 0.00 0.00 0.00 0.00 0.00 0.00
0.06 0.05 0.25 0.26 0.36 0.49 0.66 0.41 0.15 0.07 0.08 0.19 0.32 0.44 0.28 0.10 0.14 0.10 0.10 0.09 0.10 0.04 0.03 0.04 0.07 0.00 0.00 0.00 0.00 0.00 0.00 0.00 0.00 0.00 0.00 0.00 0.00 0.00 0.00 0.00 0.00 0.00
0.04 0.01 0.05 0.05 0.04 0.22 0.18 0.15 0.31 0.11 0.07 0.28 0.33 0.51 0.40 0.29 0.24 0.16 0.09 0.12 0.15 0.20 0.23 0.11 0.05 0.02 0.00 0.00 0.00 0.00 0.00 0.00 0.00 0.00 0.00 0.00 0.00 0.00 0.00 0.00 0.00 0.00
0.00 0.00 0.00 0.00 0.01 0.00 0.01 0.01 0.01 0.03 0.09 0.10 0.24 0.30 0.47 0.18 0.31 0.41 0.24 0.11 0.15 0.17 0.23 0.45 0.16 0.01 0.01 0.01 0.00 0.00 0.00 0.00 0.03 0.06 0.06 0.11 0.20 0.13 0.08 0.24 0.17 0.08
0.00 0.00 0.00 0.01 0.00 0.00 0.00 0.01 0.01 0.02 0.03 0.06 0.09 0.21 0.62 1.05 0.77 0.26 0.23 0.20 0.23 0.15 0.11 0.28 0.18 0.05 0.04 0.01 0.00 0.00 0.00 0.00 0.07 0.13 0.15 0.10 0.28 0.34 0.21 0.13 0.40 0.16
MSLP
1017.68 1017.76 1018.00 1018.20 1018.20 1018.16 1018.32 1018.60 1018.52 1018.76 1018.84 1018.68 1019.12 1019.12 1019.08 1018.96 1018.76 1018.80 1018.96 1019.08 1019.40 1019.52 1019.60 1019.72 1019.76 1019.92 1019.88 1019.96 1020.04 1020.20 1020.48 1020.32 1020.48 1020.52 1020.28 1020.48 1020.56 1020.12 1020.04 1019.88 1019.88 1019.92
1017.64 1017.60 1017.64 1017.72 1018.00 1018.04 1018.12 1018.04 1018.28 1018.48 1019.00 1018.72 1018.56 1019.64 1018.68 1018.72 1018.76 1018.84 1019.00 1019.16 1019.32 1019.40 1019.44 1019.56 1019.68 1019.80 1019.84 1019.92 1020.16 1020.24 1020.44 1020.32 1020.48 1020.24 1020.60 1020.52 1020.36 1020.12 1020.00 1019.88 1019.84 1019.64
1017.48 1017.60 1017.68 1017.80 1017.84 1018.12 1017.88 1017.92 1018.04 1018.28 1018.64 1018.60 1018.20 1018.64 1018.76 1018.40 1018.76 1018.80 1018.80 1019.00 1019.12 1019.08 1019.36 1019.44 1019.56 1019.68 1019.80 1019.84 1020.08 1020.20 1020.32 1020.52 1020.60 1020.36 1020.68 1020.84 1020.68 1020.20 1019.96 1019.52 1019.44 1019.56
1017.36 1017.36 1017.44 1017.44 1017.32 1018.20 1017.68 1017.88 1018.04 1018.20 1018.12 1018.44 1018.40 1018.12 1018.08 1018.52 1018.72 1018.60 1018.72 1018.96 1019.08 1019.08 1019.12 1019.24 1019.40 1019.56 1019.60 1019.76 1019.92 1020.08 1020.08 1020.32 1020.16 1020.40 1020.76 1020.80 1020.72 1020.24 1019.88 1019.68 1019.52 1019.40
1017.16 1017.28 1017.16 1017.16 1017.08 1017.04 1017.28 1017.56 1017.92 1018.24 1018.20 1018.20 1018.24 1018.12 1018.40 1018.24 1018.40 1018.48 1018.60 1018.84 1018.96 1019.08 1019.04 1019.20 1019.24 1019.16 1019.36 1019.56 1019.76 1019.96 1020.00 1020.24 1020.00 1020.24 1020.56 1020.72 1020.32 1020.08 1019.88 1019.68 1019.88 1020.00
1016.76 1016.88 1017.00 1017.08 1017.08 1017.16 1017.24 1017.48 1017.52 1018.20 1018.32 1018.44 1018.56 1018.80 1018.20 1018.20 1018.32 1018.32 1018.40 1018.56 1018.68 1018.76 1018.84 1018.92 1019.08 1019.00 1019.08 1019.44 1019.60 1019.76 1019.64 1019.80 1019.72 1020.08 1020.24 1020.32 1020.20 1019.80 1019.44 1019.52 1019.92 1020.20
1016.60 1016.76 1016.88 1016.80 1016.96 1017.00 1017.20 1017.28 1017.32 1017.36 1017.76 1018.16 1018.24 1018.48 1018.08 1018.16 1018.36 1018.36 1018.20 1018.36 1018.36 1018.48 1018.52 1018.88 1019.00 1019.12 1018.92 1019.08 1019.52 1019.72 1019.64 1019.60 1019.88 1020.08 1020.32 1020.12 1019.96 1019.88 1019.52 1019.64 1019.92 1020.12
1016.24 1016.36 1016.52 1016.56 1016.84 1016.84 1017.08 1017.08 1017.12 1017.28 1017.36 1017.84 1018.12 1018.12 1018.08 1018.56 1018.52 1018.08 1018.16 1018.12 1018.48 1018.56 1018.56 1018.52 1018.68 1018.92 1018.76 1018.80 1019.32 1019.60 1019.68 1019.56 1019.72 1020.04 1020.20 1020.04 1019.76 1020.00 1019.88 1019.64 1019.72 1020.08
1015.88 1016.12 1016.24 1016.48 1016.64 1016.64 1016.80 1016.76 1016.80 1016.88 1016.88 1017.56 1017.96 1017.88 1017.92 1018.08 1018.32 1018.56 1018.20 1018.04 1018.24 1018.12 1018.60 1018.44 1018.56 1018.80 1018.68 1018.68 1018.96 1019.28 1019.44 1019.32 1019.36 1019.48 1019.68 1019.84 1019.88 1019.92 1019.84 1019.56 1019.72 1019.84
1015.92 1015.92 1016.08 1016.20 1016.40 1016.36 1016.48 1016.44 1016.36 1016.44 1016.64 1016.80 1017.00 1017.12 1017.64 1017.44 1017.84 1018.48 1018.44 1018.08 1018.20 1018.96 1018.56 1018.36 1018.48 1018.60 1018.68 1018.68 1018.76 1018.96 1019.16 1019.24 1019.00 1018.96 1019.08 1019.36 1019.52 1019.52 1019.48 1019.52 1019.56 1019.72
1015.80 1015.84 1016.04 1016.04 1016.08 1015.92 1016.04 1016.08 1016.08 1016.12 1016.40 1017.20 1017.04 1017.04 1017.20 1017.52 1017.60 1017.84 1018.32 1017.96 1018.04 1018.16 1018.20 1018.32 1018.36 1018.40 1018.56 1018.76 1018.60 1018.44 1018.76 1018.84 1018.92 1019.00 1019.08 1019.16 1019.20 1019.20 1019.16 1019.20 1019.32 1019.40
1015.92 1015.84 1015.92 1015.92 1015.88 1015.76 1015.72 1015.64 1015.72 1015.92 1016.28 1016.68 1016.96 1017.20 1016.96 1017.48 1017.36 1017.20 1017.44 1017.72 1017.64 1017.84 1017.84 1018.00 1018.04 1018.12 1018.28 1018.32 1018.20 1018.28 1018.48 1018.56 1018.68 1018.88 1018.92 1018.92 1018.96 1018.88 1018.88 1018.88 1019.00 1019.08
1015.92 1015.96 1015.84 1015.72 1015.72 1015.60 1015.44 1015.44 1015.48 1015.48 1015.88 1016.68 1016.88 1016.88 1016.44 1016.36 1016.72 1017.00 1016.84 1017.04 1017.28 1017.56 1017.48 1017.76 1017.76 1017.80 1018.00 1018.16 1018.16 1018.04 1018.08 1018.24 1018.36 1018.44 1018.60 1018.96 1018.64 1018.44 1018.36 1018.40 1018.40 1018.48
1015.52 1015.48 1015.60 1015.60 1015.52 1015.56 1015.56 1015.44 1015.32 1015.36 1015.48 1015.52 1015.68 1015.96 1016.16 1016.12 1016.20 1016.80 1016.88 1017.08 1017.12 1017.24 1017.12 1017.12 1017.44 1017.56 1017.72 1017.88 1017.92 1017.96 1018.00 1018.04 1018.32 1018.24 1018.28 1018.24 1018.28 1018.40 1018.36 1018.00 1018.20 1018.12
1015.68 1015.40 1015.40 1015.52 1015.72 1015.88 1015.96 1015.84 1015.56 1015.48 1015.44 1015.48 1015.64 1015.64 1015.68 1015.84 1015.76 1015.72 1016.24 1016.24 1017.00 1017.24 1017.00 1016.80 1017.24 1017.32 1017.20 1017.52 1017.84 1017.84 1017.92 1017.88 1017.92 1018.04 1018.16 1018.24 1018.24 1017.92 1017.84 1018.00 1017.72 1017.56
1015.88 1015.88 1015.76 1015.72 1015.96 1016.20 1016.20 1016.12 1015.96 1015.68 1015.52 1015.64 1015.64 1015.68 1015.68 1015.80 1015.84 1015.96 1016.08 1016.88 1016.76 1016.88 1017.12 1016.80 1016.64 1016.84 1017.08 1017.20 1017.56 1017.76 1017.72 1017.64 1018.12 1018.20 1017.92 1018.08 1018.32 1018.28 1017.88 1017.64 1017.48 1017.40
1016.28 1016.36 1016.40 1016.68 1016.64 1016.52 1016.32 1016.36 1016.32 1016.08 1015.96 1015.92 1015.88 1015.84 1015.88 1015.84 1015.96 1016.12 1016.12 1016.48 1016.88 1016.96 1016.92 1016.92 1016.52 1016.24 1016.72 1017.08 1017.32 1017.44 1017.36 1017.56 1017.92 1018.04 1018.24 1018.60 1018.16 1018.04 1018.24 1018.00 1017.60 1017.28
1016.52 1016.60 1016.80 1016.76 1016.84 1016.96 1016.92 1016.88 1016.72 1016.68 1016.60 1016.44 1016.28 1016.20 1016.12 1016.12 1016.36 1016.48 1016.40 1016.36 1016.44 1016.92 1017.12 1017.00 1016.24 1016.28 1016.64 1016.88 1017.04 1017.24 1017.40 1017.44 1017.44 1017.64 1017.72 1017.72 1017.72 1017.80 1017.80 1017.72 1017.60 1017.32
1016.56 1016.76 1016.80 1016.88 1016.96 1016.96 1016.92 1016.92 1017.00 1017.08 1017.12 1017.04 1016.92 1016.52 1016.44 1016.72 1016.72 1016.60 1016.56 1016.40 1016.40 1016.52 1016.48 1016.20 1016.04 1016.08 1016.48 1016.64 1016.88 1017.12 1017.36 1017.52 1017.44 1017.28 1017.28 1017.32 1017.24 1017.36 1017.52 1017.56 1017.44 1017.40
1016.68 1016.80 1016.88 1016.76 1016.64 1016.72 1016.80 1016.96 1017.04 1017.12 1017.08 1016.96 1016.88 1017.16 1017.76 1018.12 1017.92 1017.12 1016.64 1016.52 1016.48 1016.44 1016.36 1016.16 1016.04 1016.32 1016.44 1016.72 1016.92 1017.20 1017.40 1017.60 1017.48 1017.32 1017.16 1017.08 1017.12 1017.08 1017.08 1017.16 1017.32 1017.44
1016.80 1017.00 1016.96 1016.92 1016.88 1016.96 1017.12 1017.40 1017.84 1017.28 1016.96 1017.04 1017.32 1017.68 1017.92 1017.96 1018.12 1018.08 1017.28 1016.52 1016.36 1016.32 1016.32 1016.44 1016.16 1016.52 1016.68 1016.88 1017.12 1017.36 1017.60 1017.76 1017.48 1017.36 1017.16 1016.96 1016.84 1016.84 1016.96 1017.00 1016.92 1017.08
1017.08 1016.92 1016.88 1017.04 1017.16 1017.32 1017.52 1017.68 1017.76 1017.16 1017.00 1017.08 1017.40 1017.60 1017.68 1017.76 1017.84 1017.96 1018.64 1018.16 1016.92 1016.36 1016.44 1016.40 1017.32 1017.68 1017.60 1017.52 1017.48 1017.56 1017.72 1017.72 1017.56 1017.72 1017.64 1017.36 1016.96 1016.72 1016.64 1016.64 1016.64 1016.76
1016.84 1016.92 1017.12 1017.24 1017.40 1017.56 1017.84 1017.92 1017.60 1017.08 1017.00 1017.00 1017.52 1017.60 1017.56 1017.72 1018.00 1018.20 1018.00 1018.08 1018.48 1018.04 1017.12 1017.08 1017.76 1017.92 1018.00 1018.16 1018.20 1018.04 1017.84 1017.64 1017.60 1017.48 1017.48 1017.40 1017.24 1016.88 1016.64 1016.44 1016.44 1016.48
1016.80 1016.84 1017.04 1017.04 1017.28 1017.68 1017.80 1017.64 1017.44 1017.28 1017.24 1017.00 1017.36 1017.60 1017.64 1017.60 1017.68 1017.88 1017.80 1017.80 1018.08 1018.88 1019.00 1018.52 1018.48 1018.52 1018.56 1018.56 1018.60 1018.60 1018.44 1017.88 1017.56 1017.60 1017.56 1017.56 1017.40 1017.20 1016.88 1016.68 1016.44 1016.52
1016.60 1016.72 1016.96 1017.20 1017.40 1017.44 1017.40 1017.40 1017.20 1017.12 1017.12 1017.04 1017.04 1017.20 1017.36 1017.32 1017.48 1017.72 1017.68 1017.76 1017.92 1018.24 1018.68 1019.24 1019.00 1018.64 1018.88 1019.04 1019.12 1019.08 1018.72 1018.12 1017.96 1018.08 1018.40 1018.64 1018.84 1019.04 1018.96 1019.08 1019.04 1018.44
1016.60 1016.84 1016.92 1017.04 1017.16 1017.24 1017.20 1017.20 1017.08 1017.12 1017.08 1017.12 1017.28 1017.48 1017.68 1017.72 1017.60 1017.60 1017.76 1018.12 1018.20 1018.28 1018.44 1018.60 1018.84 1018.88 1018.68 1018.80 1019.04 1019.12 1019.12 1018.60 1018.04 1018.40 1018.84 1018.80 1019.04 1019.40 1019.44 1019.28 1019.52 1019.40
Thickness
5794 5794 5793 5793 5793 5793 5793 5792 5792 5791 5790 5792 5791 5789 5792 5794 5794 5795 5794 5792 5791 5790 5790 5789 5788 5788 5788 5788 5787 5787 5788 5789 5789 5789 5790 5788 5789 5793 5794 5795 5796 5796
5794 5795 5795 5795 5794 5794 5795 5795 5795 5793 5791 5793 5794 5790 5793 5795 5794 5794 5794 5793 5792 5792 5791 5790 5789 5789 5789 5789 5788 5788 5788 5788 5788 5789 5789 5788 5789 5793 5795 5795 5797 5796
5794 5794 5795 5796 5795 5793 5795 5796 5796 5795 5793 5794 5796 5794 5795 5797 5795 5794 5794 5793 5794 5793 5792 5791 5790 5789 5790 5790 5788 5789 5789 5787 5788 5789 5788 5787 5788 5791 5794 5797 5798 5798
5793 5794 5795 5797 5797 5796 5797 5797 5795 5795 5795 5795 5797 5798 5798 5797 5796 5796 5795 5794 5794 5794 5793 5792 5792 5791 5791 5790 5790 5790 5790 5789 5789 5789 5787 5787 5788 5790 5794 5796 5797 5798
5794 5796 5796 5797 5799 5799 5800 5799 5795 5795 5795 5795 5796 5797 5798 5797 5797 5798 5796 5795 5794 5794 5794 5794 5793 5794 5793 5792 5792 5792 5791 5791 5792 5791 5789 5788 5790 5791 5795 5795 5794 5794
5796 5796 5797 5797 5799 5799 5799 5799 5798 5797 5794 5794 5793 5793 5796 5798 5797 5797 5797 5797 5796 5795 5796 5795 5794 5795 5795 5793 5792 5793 5793 5793 5793 5792 5790 5790 5792 5794 5797 5796 5793 5792
5796 5797 5798 5798 5798 5798 5798 5799 5800 5800 5797 5795 5793 5794 5796 5796 5795 5797 5798 5798 5798 5797 5797 5796 5795 5795 5797 5796 5793 5792 5793 5793 5792 5791 5789 5791 5793 5793 5796 5796 5793 5792
5797 5798 5798 5798 5798 5798 5798 5799 5800 5801 5800 5796 5794 5794 5795 5794 5794 5797 5799 5799 5799 5798 5797 5797 5797 5796 5797 5798 5794 5792 5793 5793 5792 5791 5789 5791 5793 5792 5793 5795 5794 5792
5798 5799 5799 5798 5798 5797 5799 5800 5801 5803 5802 5799 5797 5797 5796 5795 5794 5795 5797 5800 5799 5797 5797 5798 5797 5797 5797 5798 5796 5794 5793 5795 5796 5795 5792 5792 5792 5792 5793 5794 5794 5793
5797 5798 5798 5798 5799 5799 5800 5801 5802 5804 5803 5801 5800 5801 5799 5798 5797 5794 5795 5799 5798 5795 5796 5798 5797 5796 5796 5797 5797 5796 5794 5795 5797 5797 5796 5794 5793 5794 5794 5795 5795 5794
5795 5796 5797 5798 5799 5801 5802 5802 5803 5805 5803 5800 5801 5802 5800 5798 5798 5796 5794 5796 5798 5797 5797 5797 5796 5796 5795 5795 5797 5798 5797 5797 5797 5797 5796 5795 5795 5796 5796 5796 5796 5795
5792 5793 5794 5796 5798 5800 5802 5803 5804 5804 5802 5799 5798 5799 5800 5800 5800 5800 5800 5799 5798 5798 5798 5798 5797 5797 5796 5796 5798 5798 5798 5798 5798 5797 5797 5796 5796 5797 5797 5798 5798 5796
5790 5791 5792 5794 5796 5798 5800 5803 5804 5804 5802 5800 5798 5799 5801 5803 5802 5800 5801 5801 5800 5799 5799 5799 5798 5798 5797 5796 5798 5799 5798 5798 5798 5798 5797 5797 5798 5799 5799 5800 5801 5800
5791 5792 5792 5793 5795 5795 5797 5799 5802 5802 5803 5802 5802 5803 5803 5804 5804 5802 5802 5802 5800 5799 5800 5800 5799 5798 5798 5797 5797 5798 5798 5798 5798 5797 5797 5798 5799 5800 5801 5801 5802 5802
5789 5790 5792 5792 5791 5791 5792 5794 5797 5799 5801 5801 5802 5803 5802 5802 5804 5804 5803 5802 5799 5797 5799 5801 5799 5798 5798 5798 5796 5796 5798 5798 5797 5796 5797 5798 5798 5799 5801 5802 5803 5804
5783 5784 5786 5786 5786 5786 5787 5789 5792 5795 5797 5798 5799 5799 5800 5800 5800 5801 5801 5799 5797 5796 5797 5799 5799 5799 5798 5797 5795 5795 5797 5797 5795 5795 5795 5795 5795 5796 5798 5800 5803 5804
5777 5778 5779 5779 5780 5781 5782 5783 5786 5789 5791 5792 5794 5795 5796 5796 5796 5797 5797 5796 5794 5793 5793 5795 5798 5799 5796 5795 5794 5794 5795 5795 5794 5793 5792 5792 5793 5795 5794 5797 5800 5802
5772 5773 5773 5774 5774 5775 5777 5778 5778 5781 5782 5784 5787 5789 5790 5791 5791 5790 5792 5792 5792 5790 5790 5793 5797 5797 5794 5793 5793 5793 5792 5793 5793 5793 5792 5793 5794 5795 5794 5796 5798 5800
5768 5769 5769 5771 5772 5771 5773 5774 5773 5774 5775 5776 5779 5782 5782 5782 5782 5785 5788 5789 5789 5788 5789 5792 5794 5794 5793 5791 5790 5791 5790 5789 5790 5792 5792 5793 5794 5794 5794 5796 5796 5797
5763 5764 5765 5768 5769 5768 5769 5768 5767 5769 5770 5771 5773 5774 5773 5770 5770 5775 5781 5785 5786 5786 5787 5789 5789 5789 5790 5789 5787 5787 5787 5786 5787 5789 5790 5791 5793 5793 5794 5794 5795 5794
5758 5759 5761 5764 5764 5764 5764 5761 5760 5764 5767 5768 5768 5768 5766 5765 5764 5766 5771 5778 5783 5784 5784 5783 5782 5783 5785 5785 5783 5782 5781 5781 5783 5784 5787 5789 5791 5792 5793 5794 5795 5794
5754 5756 5759 5760 5758 5757 5758 5755 5757 5762 5766 5765 5763 5763 5764 5763 5763 5762 5762 5766 5772 5778 5780 5778 5774 5775 5777 5776 5775 5776 5776 5778 5780 5780 5782 5785 5787 5790 5792 5792 5794 5794
5752 5754 5755 5755 5754 5753 5751 5752 5755 5759 5762 5761 5760 5760 5761 5761 5760 5760 5760 5760 5760 5761 5766 5768 5766 5766 5768 5767 5766 5767 5770 5774 5777 5778 5780 5781 5783 5787 5790 5792 5794 5793
5750 5751 5751 5751 5751 5750 5749 5751 5754 5755 5756 5758 5758 5758 5759 5759 5758 5757 5758 5758 5755 5750 5750 5754 5756 5757 5758 5757 5757 5758 5762 5768 5772 5774 5775 5776 5776 5777 5780 5784 5786 5787
5749 5749 5749 5748 5748 5748 5749 5750 5753 5753 5754 5755 5756 5756 5756 5756 5756 5755 5754 5755 5753 5748 5745 5745 5748 5748 5748 5749 5749 5749 5754 5760 5764 5765 5765 5766 5764 5764 5766 5768 5769 5771
5745 5745 5745 5746 5746 5747 5748 5748 5749 5750 5751 5751 5752 5752 5752 5751 5752 5751 5750 5749 5749 5746 5743 5741 5742 5743 5744 5744 5744 5744 5746 5752 5757 5758 5759 5758 5756 5756 5756 5756 5758 5762